Regional Weather Roundup
Issued by NWS Green Bay, WI

Home | Current Version | Previous Version | Graphics & Text | Print | Product List | Glossary Off
Versions: 1 2 3 4 5 6 7 8 9 10 11 12 13 14 15 16 17 18 19 20 21 22 23 24 25 26 27 28 29 30 31 32 33 34 35 36 37 38 39 40 41 42 43 44 45 46 47 48 49 50

000
ASUS43 KGRB 102200
RWRGRB

NORTH-CENTRAL AND NORTHEAST WISCONSIN REGIONAL WEATHER ROUNDUP
NATIONAL WEATHER SERVICE GREEN BAY WI
400 PM CST WED FEB 10 2016

WIZ005-009-010>012-018-019-102300-
NORTH CENTRAL WISCONSIN

CITY           SKY/WX    TMP DP  RH WIND       PRES   REMARKS
IRONWOOD       CLOUDY     9   5  85 NW9       30.04R WCI  -5
MANITOWISH WTR NOT AVBL
ARBOR VITAE    NOT AVBL
EAGLE RIVER    NOT AVBL
LAND O LAKES   NOT AVBL
RHINELANDER    CLOUDY    10  -4  53 NW12G20   29.99R WCI  -5
PHILLIPS       NOT AVBL
ANTIGO         NOT AVBL
TOMAHAWK       NOT AVBL
MERRILL        NOT AVBL
$$

WIZ013-073-102300-
NORTHEAST WISCONSIN

CITY           SKY/WX    TMP DP  RH WIND       PRES   REMARKS
IRON MOUNTAIN  PTSUNNY    9  -5  53 N15       30.00R WCI  -8
MARINETTE      SUNNY     12  -6  44 N13G21    30.03R WCI  -3
$$

WIZ017-030-035>037-045-102300-
CENTRAL WISCONSIN

CITY           SKY/WX    TMP DP  RH WIND       PRES   REMARKS
MEDFORD        NOT AVBL
WAUSAU         SUNNY     14  -4  44 N8        30.01R WCI   3
MOSINEE        NOT AVBL
MARSHFIELD     SUNNY     11  -4  51 NW13      30.02R WCI  -4
WISC RAPIDS    SUNNY     10  -4  53 NW12      30.07R WCI  -5
STEVENS POINT  NOT AVBL
WAUPACA        NOT AVBL
SHAWANO        NOT AVBL
CLINTONVILLE   NOT AVBL
WAUTOMA        NOT AVBL
$$

WIZ038-039-048-051-102300-
FOX VALLEY

CITY           SKY/WX    TMP DP  RH WIND       PRES   REMARKS
NWS GREEN BAY  SUNNY     14  -5  42 NW9       30.03R WCI   2
APPLETON       MOSUNNY   12  -8  40 W9        30.00R WCI   0
OSHKOSH        SUNNY     14  -4  44 N13       30.03R WCI   0
FOND DU LAC    SUNNY     13  -2  51 NW7       30.03R WCI   3
$$

WIZ022-050-052-102300-
EAST CENTRAL WISCONSIN

CITY           SKY/WX    TMP DP  RH WIND       PRES   REMARKS
EPHRAIM        NOT AVBL
STURGEON BAY   SUNNY     12  -6  44 N17       30.03R WCI  -5
MANITOWOC      NOT AVBL
SHEBOYGAN      SUNNY     12  -4  48 NW12      30.03R WCI  -2
$$

LMZ563-521-522-541>543-102300-
LAKESHORE

STATION/POSITION TIME  TEMP    WIND        PRES    VSBY  WAVE
                       AIR SEA DIR/SP/G                  HT/PER
                 (UTC) (F)     (DEG/KT/KT) (MB)    (MI)  (FT/S)
SHEBOYGAN LKSHOR 2100   12     340/ 14/ 16 1018.2R
KEWAUNEE LKSHORE 2100   14     320/  8/ 13 1015.2R
CHAMBERS ISLAND  2100   15     310/ 16/ 22 1015.9R
MENOMINEE LKSHOR 2100   14     340/ 20     1014.9R
$$



USA.gov is the U.S. government's official web portal to all federal, state and local government web resources and services.